sat.trackr.live / text

‹ back to catalog

STARLINK-35636

NORAD 66160 · 2025-240Q

PAYLOAD ACTIVE UNKNOWN

§ Identity

Operator
Country
US
Launch date
2025-10-25
Launch site
AFWTR
Launch vehicle
Mass (kg)
RCS (m²)

Purposes: comms

External: N2YO · Heavens-Above · Gunter

§ Orbital elements

Epoch: 2026-09-20T07:45:03.555648Z

Period
93.85 min
Inclination
53.1572°
Eccentricity
0.0002451
Mean motion
15.34381816 rev/d
Perigee alt
461.1 km
Apogee alt
464.4 km
Semi-major
6,840.9 km
B*
1.0070e-3
RAAN
236.2132°
Arg perigee
86.3822°
Mean anomaly
273.7461°
Rev number
5,182

§ Raw data

STARLINK-356361 66160U 25240Q   26263.32295782  .00033781  00000+0  10070-2 0  99902 66160  53.1572 236.2132 0002451  86.3822 273.7461 15.34381816 51820

JSON: /api/v1/satellites/66160 · /tle

For live sub-satellite position, see the globe view (requires WebGL).

§ Visibility from observer

Set your observer location to see the next 7 days of passes ≥ 10°. The values pass through the URL so the page stays shareable.

No JS? Fill the form by hand. The geolocation button needs JavaScript.